Lapse_Rate
3.3 9.5 10.3 9.4 6.6 6.5 6.5 6.5 6.5 6.5 6.5 7.4 7.7 7.0 6.6 7.2 6.5 6.5 9.3 9.6 9.7 9.6 6.0 3.2 1.9 2.3 2.6 2.9 2.7 2.5 2.5 2.7 2.7 2.7 2.7 3.0 3.5 3.6 4.0 4.4 4.7 5.1 5.0 4.9 4.8 4.5 4.4 3.9 3.6
6.3 10.0 9.6 8.3 6.5 6.5 6.5 6.5 6.5 6.5 7.0 7.7 7.6 7.4 6.9 6.5 8.2 8.4 8.9 9.6 9.9 9.7 6.0 5.1 1.5 2.3 2.6 2.7 2.9 2.8 2.8 2.9 2.8 2.8 2.9 3.1 3.4 3.5 3.7 4.1 4.6 4.9 4.8 4.8 4.8 4.4 4.0 3.6 3.5
6.8 9.9 8.1 6.5 6.5 6.5 6.5 6.5 6.5 6.8 7.6 7.4 7.1 7.9 7.4 7.1 8.4 8.7 9.4 9.8 10.0 9.8 7.8 4.7 1.1 2.0 2.4 2.6 2.8 2.9 2.9 2.9 2.9 2.9 3.0 3.2 3.5 3.6 3.7 4.0 4.3 4.5 4.7 4.6 4.7 4.2 3.5 3.3 3.3
9.5 9.1 8.3 6.5 6.5 6.5 6.5 6.5 6.6 6.6 7.4 7.7 7.6 6.5 8.1 8.9 8.7 9.3 9.7 9.9 9.9 9.9 9.7 0.0 0.8 1.7 2.1 2.7 2.8 2.9 2.8 2.7 2.8 2.9 3.1 3.3 3.4 3.6 3.7 3.9 4.2 4.3 4.4 4.5 4.3 3.7 3.1 3.2 3.4
9.6 8.4 6.5 6.5 6.5 6.5 6.5 7.0 7.1 6.5 6.9 7.2 7.5 6.7 7.3 8.8 9.4 9.5 9.6 9.9 9.7 9.8 9.7 2.7 0.5 1.6 2.2 2.6 2.8 2.7 2.6 2.7 3.0 3.0 3.0 3.1 3.2 3.5 3.6 3.7 3.8 4.0 4.1 4.0 3.6 3.1 3.2 3.2 3.2
7.8 7.7 6.5 6.5 6.5 6.5 6.5 7.3 7.2 6.8 7.2 7.3 7.2 7.1 7.4 9.2 9.2 9.4 9.7 9.7 9.9 9.8 9.4 4.8 0.8 1.5 2.2 2.5 2.6 2.5 2.5 2.7 3.1 3.1 3.1 2.9 3.0 3.3 3.4 3.5 3.5 3.6 3.6 3.4 3.1 3.2 3.3 3.2 2.8
6.9 6.5 6.5 6.5 6.5 6.5 6.5 7.5 6.8 6.8 6.9 7.0 7.9 6.5 7.8 8.7 9.3 9.5 9.7 9.8 9.8 9.8 9.6 5.4 3.8 2.3 1.9 2.1 2.2 2.3 2.5 2.8 3.0 3.1 3.1 2.9 2.9 3.0 3.1 3.2 3.3 3.3 3.2 3.1 3.1 3.2 3.3 3.1 2.9
8.1 6.5 6.5 6.5 6.5 6.5 6.7 7.2 7.7 7.3 6.9 8.4 8.4 6.6 6.9 8.5 9.3 9.5 9.6 9.6 9.6 9.4 9.6 5.8 5.5 4.3 4.0 3.4 1.9 2.2 2.5 2.6 2.8 3.0 2.9 3.0 3.0 3.0 3.1 3.1 3.2 3.2 3.0 3.1 3.2 3.3 3.3 3.2 3.0
8.6 6.5 6.5 6.5 6.5 6.5 7.2 6.6 7.8 8.3 7.7 7.9 8.2 8.0 8.6 9.1 9.1 9.1 9.1 9.3 9.4 9.4 9.4 7.0 7.0 6.6 6.3 5.4 3.3 2.2 2.4 2.6 2.8 3.2 2.9 3.3 6.2 5.1 4.0 5.3 3.5 3.1 3.1 3.2 3.2 3.4 3.4 3.1 2.8
6.9 6.5 6.5 6.5 6.5 6.5 6.9 7.0 7.2 7.1 7.3 7.3 7.7 8.5 8.8 9.0 8.9 8.6 8.9 8.9 9.1 9.2 9.4 9.1 9.0 8.7 8.7 9.3 4.9 5.8 6.0 5.9 6.0 6.0 4.9 6.7 9.4 7.3 7.4 5.9 3.5 3.0 3.0 3.1 3.3 3.3 3.3 3.3 7.2
7.0 6.5 6.5 6.8 7.4 7.5 7.1 7.0 7.8 6.9 6.5 7.4 7.2 7.8 8.5 8.6 8.7 8.6 8.7 9.1 9.2 9.5 9.6 9.6 9.5 9.3 8.9 9.9 7.9 9.2 9.1 9.1 7.6 7.5 6.9 9.0 9.6 9.2 9.4 7.8 5.0 5.0 3.2 5.0 4.2 4.1 5.5 7.1 9.4
6.5 7.0 7.1 7.2 7.6 7.4 6.8 7.6 7.1 7.4 7.2 8.3 8.5 8.5 8.6 8.5 8.5 8.7 8.7 8.9 9.3 9.4 9.5 9.7 9.7 9.5 8.9 9.9 9.8 9.7 10.3 9.7 9.5 9.4 8.6 9.6 9.7 9.6 9.6 9.7 8.7 7.4 6.7 8.1 7.0 8.0 7.1 9.2 9.4
6.5 6.6 7.3 7.6 7.6 7.6 7.8 7.1 6.8 7.3 8.2 8.4 8.7 8.7 8.6 8.7 8.8 9.0 9.1 9.2 9.2 9.2 9.4 9.5 9.7 9.7 9.3 9.4 9.9 9.9 9.9 10.0 9.6 9.5 9.4 9.5 9.8 9.7 9.7 9.7 9.6 9.6 9.5 9.4 9.7 9.7 9.3 9.5 9.6
7.2 7.1 7.2 7.5 7.3 7.5 6.8 6.9 7.4 7.4 8.3 8.1 8.1 8.3 8.6 8.6 8.7 8.9 8.9 9.0 9.1 9.2 9.2 9.5 9.7 9.7 9.8 9.5 9.4 9.7 9.7 9.7 9.8 9.7 9.6 8.8 9.6 9.5 9.8 9.9 9.8 9.7 9.7 9.6 9.7 9.8 9.8 9.8 9.7
7.3 6.5 6.5 6.8 7.1 6.6 7.5 6.5 6.5 7.6 8.0 7.9 8.1 8.1 8.5 8.7 8.9 8.8 9.0 8.9 9.1 9.4 9.5 9.2 9.5 9.6 9.7 9.5 9.7 9.7 9.8 9.7 10.0 9.9 9.5 9.0 9.5 9.5 9.5 9.8 9.8 9.8 9.7 9.6 9.7 9.7 9.7 9.9 9.8
6.5 6.5 6.5 6.5 6.7 7.1 6.9 6.5 6.5 7.9 7.6 7.5 7.9 8.2 8.2 8.5 8.8 9.1 9.1 9.2 9.5 9.4 9.3 9.4 9.7 9.6 9.6 9.6 9.8 9.8 9.9 9.9 9.8 9.8 9.6 9.4 9.2 9.3 9.0 9.8 9.8 9.7 9.6 9.7 9.8 9.7 9.6 9.6 9.6
6.5 6.5 6.5 6.5 6.9 6.5 6.5 6.5 6.8 8.0 7.8 7.5 7.8 8.1 8.2 8.4 8.7 9.0 9.2 9.4 9.5 9.5 9.3 9.4 9.5 9.6 9.4 9.7 9.8 9.7 9.6 9.9 9.8 9.8 9.8 9.3 9.0 7.9 9.5 9.9 9.9 9.5 9.8 9.8 9.7 9.7 9.5 9.4 9.4
6.5 6.5 6.5 6.5 6.5 6.5 6.5 6.5 6.5 7.6 7.6 7.4 7.8 7.9 8.1 8.3 8.5 8.9 9.0 9.3 9.5 9.6 9.3 9.3 9.6 9.5 9.6 10.0 9.8 9.8 10.0 10.0 9.9 10.1 9.9 9.4 9.1 8.0 8.5 9.8 9.6 9.4 9.8 9.8 9.6 9.1 9.7 9.4 9.4
6.5 6.5 6.5 6.5 6.5 6.5 6.5 6.5 6.5 7.2 7.4 7.3 7.6 7.8 8.0 8.2 8.6 8.9 9.0 9.1 9.3 9.2 9.2 9.2 8.8 9.1 9.9 9.5 9.8 9.8 9.9 9.9 10.0 9.9 9.9 9.6 9.6 8.8 6.9 9.4 9.6 9.5 9.5 9.3 9.0 9.2 8.9 9.3 9.4
6.5 6.5 6.5 6.5 6.5 6.5 6.5 6.5 6.5 6.7 7.1 7.7 7.6 7.7 7.9 8.2 8.4 8.6 8.9 9.0 8.9 9.1 9.1 9.1 9.3 9.3 9.5 9.8 10.0 10.0 9.7 9.9 9.8 10.0 9.9 9.7 9.5 8.9 7.9 8.7 9.7 9.3 9.7 9.2 9.1 8.7 9.1 9.0 9.4
6.5 6.5 6.5 6.5 6.5 6.5 6.5 6.5 6.5 6.6 7.6 7.9 8.0 7.9 8.0 8.0 8.1 8.5 8.7 8.7 8.8 8.9 9.0 9.2 9.3 9.4 9.6 9.5 10.0 9.9 10.0 9.7 9.6 9.8 9.9 10.0 9.8 9.6 9.5 9.5 7.9 9.5 9.0 9.5 8.5 9.0 8.1 9.0 9.2
6.5 6.5 6.5 6.5 6.5 6.5 6.5 6.5 6.5 6.5 6.5 6.7 7.6 7.8 8.0 8.2 8.4 8.6 8.5 8.7 8.8 8.9 9.1 9.3 9.3 9.5 9.4 9.5 9.5 9.2 9.5 9.0 9.4 9.4 9.6 9.9 9.9 9.9 9.7 9.5 8.8 7.8 9.7 9.0 9.3 9.3 8.9 8.2 8.9
6.5 6.5 6.5 6.5 6.5 6.5 6.5 6.5 6.5 6.5 6.5 6.5 7.3 7.6 8.0 8.2 8.1 8.1 8.6 8.8 9.0 8.9 8.6 9.0 8.9 9.4 9.4 9.3 9.3 8.8 8.8 9.3 9.5 9.7 9.4 9.2 9.7 9.4 9.7 9.9 9.4 9.4 8.7 9.3 8.4 8.8 8.6 9.3 8.3
6.5 6.5 6.5 6.5 6.5 6.5 6.5 6.5 6.5 6.5 6.5 6.5 6.9 7.6 7.7 8.1 8.2 8.5 9.0 9.2 9.2 9.2 6.9 7.1 8.8 9.1 9.4 9.3 8.9 8.9 8.7 8.1 7.7 7.9 9.1 9.0 9.5 9.7 9.4 9.7 9.7 9.3 9.4 8.6 8.9 8.1 8.5 7.3 8.1
6.5 6.5 6.5 6.5 6.5 6.5 6.5 6.5 6.5 6.5 6.5 6.6 6.7 7.0 7.5 8.1 8.1 8.4 8.9 9.1 9.1 9.1 9.0 8.1 5.1 5.2 5.1 6.9 9.1 9.0 8.7 8.0 8.3 8.8 8.2 8.3 8.2 8.2 8.3 8.6 9.3 9.4 9.2 9.1 8.8 8.2 7.1 7.2 7.0
6.5 6.5 6.5 6.5 6.5 6.5 6.5 6.5 6.5 6.5 7.1 7.3 7.5 7.3 7.4 7.6 8.4 8.3 8.4 8.9 9.0 8.7 8.9 9.0 8.4 5.6 4.5 4.6 3.9 2.9 4.8 8.9 8.6 9.4 9.3 9.1 8.5 7.5 6.5 6.6 7.7 8.0 8.7 8.7 7.7 8.0 7.9 7.0 7.3
6.5 6.5 6.5 6.5 6.5 6.5 6.5 6.5 6.5 6.5 6.5 7.0 7.0 7.4 7.3 7.4 7.7 8.6 8.5 8.1 7.9 8.0 6.9 7.2 8.3 7.7 6.3 5.8 4.4 3.0 1.6 1.4 2.4 3.6 6.0 8.4 9.0 9.2 8.7 7.5 7.3 7.8 7.9 8.9 8.9 8.6 8.5 8.5 7.9
6.5 6.5 6.5 6.5 6.5 6.5 6.5 6.5 6.5 6.5 6.5 6.5 6.7 7.1 7.4 7.7 7.9 8.4 8.8 8.4 7.7 7.0 6.5 6.1 6.7 7.6 7.3 6.5 4.8 5.1 5.3 3.5 2.2 1.4 1.0 1.5 2.6 4.0 3.4 7.5 8.0 8.1 7.8 7.9 8.0 8.3 8.5 8.9 8.8
6.5 6.5 6.5 6.5 6.5 6.5 6.5 6.5 6.5 6.5 6.5 6.5 6.8 7.2 7.6 7.8 7.8 8.1 8.6 8.9 8.6 7.4 7.0 6.0 6.1 6.2 6.4 7.0 6.1 5.9 5.5 5.1 5.1 4.4 3.4 2.6 1.8 1.9 1.6 2.2 3.9 6.6 7.8 8.1 8.2 8.0 8.3 8.3 8.7
6.5 6.5 6.5 6.5 6.5 6.5 6.5 6.5 6.5 6.5 6.8 7.0 7.0 7.4 7.8 8.2 8.2 8.2 8.2 8.5 8.1 8.3 7.3 6.9 5.9 5.7 6.5 6.4 5.8 5.5 5.4 5.4 5.0 5.0 4.2 4.9 4.6 4.4 2.3 1.3 1.8 2.1 3.1 3.7 3.8 5.0 6.8 7.9 7.9
Wind_Speed
22 13 6 8 7 8 17 18 7 3 6 6 5 5 12 11 10 4 9 7 18 21 24 22 21 21 23 22 23 23 23 21 19 20 20 19 18 18 18 18 18 19 20 20 19 18 18 18 17
13 11 6 9 8 13 12 19 9 14 11 5 3 2 4 8 12 8 10 10 19 22 24 22 22 21 23 23 23 23 24 22 19 20 20 18 19 19 18 18 18 18 19 20 19 19 19 17 16
13 9 8 7 13 14 14 8 4 5 5 4 4 5 3 11 8 7 9 18 20 21 25 23 22 23 23 24 24 23 24 23 20 19 20 19 18 18 18 18 18 18 18 19 19 19 18 17 17
5 6 5 10 16 13 17 8 5 2 3 2 4 7 8 10 6 9 13 18 19 20 24 26 21 23 24 23 25 24 22 23 21 21 20 18 17 17 17 18 17 18 18 18 18 17 16 18 17
8 7 11 14 17 17 0 10 5 11 4 6 6 3 7 12 8 4 14 16 18 18 20 24 22 22 23 24 24 23 23 23 21 20 20 18 17 17 17 17 17 17 18 18 17 16 17 18 15
8 6 12 14 17 12 8 9 8 10 11 10 9 6 6 9 10 4 10 15 15 17 19 22 20 21 22 23 23 23 23 23 20 20 19 18 18 17 17 16 16 17 17 17 17 18 17 15 13
13 11 15 18 16 4 1 7 10 11 13 11 7 12 5 13 8 4 9 12 14 15 15 20 21 21 19 21 22 23 23 22 22 20 19 18 19 18 16 16 16 17 17 17 18 19 17 13 10
10 12 18 16 14 12 2 7 12 10 13 12 5 6 3 8 8 4 9 12 13 11 14 16 19 21 21 20 18 22 22 22 21 20 19 19 17 16 15 15 15 16 16 17 17 18 16 11 8
10 10 13 16 12 9 7 4 9 10 11 12 8 8 11 6 4 3 8 13 13 11 13 14 16 19 21 21 19 18 19 20 20 18 17 19 16 16 16 16 19 15 16 17 18 17 14 9 7
10 11 16 10 13 8 11 10 9 12 15 11 9 10 6 3 2 2 9 13 15 16 16 14 14 16 18 20 21 22 21 20 20 19 18 17 16 16 17 16 18 15 14 15 15 14 12 11 12
7 14 9 5 10 8 13 14 14 8 13 14 14 11 9 5 5 4 8 12 17 17 15 17 14 13 15 13 18 19 19 19 19 20 19 18 16 16 15 14 14 14 14 14 14 13 14 15 14
9 8 3 9 5 12 14 16 19 17 14 18 17 17 15 14 7 5 6 11 15 19 19 19 18 14 13 14 13 17 13 17 16 20 20 16 12 13 13 13 16 16 17 16 17 15 16 16 16
10 7 4 7 11 12 17 20 21 25 19 13 18 19 19 19 16 12 9 7 13 19 20 20 19 17 14 11 11 12 11 14 18 20 22 20 14 9 13 12 15 16 17 16 14 15 15 15 15
5 7 10 11 11 11 16 17 17 20 16 11 8 15 17 20 17 15 12 11 11 17 20 20 21 17 17 13 13 9 11 16 17 18 20 22 17 11 12 9 11 14 16 17 15 12 10 10 12
6 10 9 3 4 14 13 17 20 19 20 21 22 21 21 19 20 17 13 13 12 14 19 18 18 19 17 16 13 11 13 16 12 15 18 22 18 14 13 9 10 13 15 14 13 12 12 8 11
4 5 6 6 10 8 10 17 20 12 9 14 16 16 18 18 19 20 20 14 15 16 19 20 18 20 18 16 13 12 12 13 14 17 18 20 21 17 14 10 10 15 14 13 9 9 9 9 9
7 9 12 13 12 9 7 16 15 21 21 22 20 20 18 19 20 17 17 19 15 15 18 20 19 20 19 17 15 14 13 12 14 17 17 20 21 21 15 10 10 14 11 8 8 8 9 9 9
9 11 11 13 12 14 17 19 19 19 22 23 22 21 21 20 20 19 20 16 15 15 16 18 16 19 17 14 14 13 12 12 14 12 15 19 20 22 16 13 10 14 10 10 10 10 9 9 9
8 12 15 14 12 14 18 21 22 20 20 22 23 21 20 22 18 16 17 19 14 14 15 18 17 17 14 15 14 13 13 12 12 12 17 18 19 21 17 12 11 10 11 12 12 10 10 9 9
10 13 13 13 14 15 18 18 18 24 24 26 22 20 19 19 14 15 19 18 17 14 18 16 18 20 17 15 14 12 13 13 13 12 11 17 18 20 16 14 12 13 11 12 11 12 9 10 9
9 10 13 15 15 18 17 10 19 22 24 26 28 13 10 11 13 15 15 17 16 14 15 15 16 19 19 20 13 12 12 12 11 12 11 13 17 18 18 16 14 12 12 10 12 11 13 9 9
8 11 11 14 13 12 13 10 19 19 20 21 25 24 23 16 13 14 10 12 11 13 10 14 16 17 15 18 15 18 14 14 12 11 12 13 16 16 19 17 15 15 10 13 11 12 12 11 9
7 14 12 11 13 8 8 3 7 15 16 19 22 25 24 23 19 16 16 18 18 19 15 12 13 16 17 15 17 10 13 11 11 12 14 15 12 16 17 15 16 14 12 12 14 12 14 10 11
10 15 19 10 9 5 2 6 11 8 7 11 15 19 20 20 21 21 19 19 19 18 17 19 12 12 15 16 18 17 15 11 8 9 9 8 9 9 15 17 14 15 13 14 12 13 13 14 12
13 14 5 2 4 3 15 10 5 8 11 12 13 13 15 17 18 20 23 22 21 21 21 18 21 20 21 9 14 16 14 12 14 11 9 8 9 7 7 13 13 12 15 14 14 13 15 14 14
8 8 5 5 8 6 12 4 4 6 14 11 12 11 15 14 16 18 21 18 17 20 22 23 23 21 20 19 18 16 15 8 11 13 11 8 10 11 14 12 11 12 13 14 14 12 12 15 13
6 7 7 5 9 4 4 3 8 10 12 13 12 15 13 14 14 17 16 17 18 19 21 20 20 19 20 20 15 16 15 16 12 15 11 5 8 8 8 15 15 16 15 16 14 12 14 14 15
3 7 2 1 5 5 3 7 7 11 8 8 11 13 13 12 14 14 16 14 15 17 17 18 18 20 18 18 17 14 15 14 13 13 14 14 12 11 13 5 13 14 15 15 15 13 15 15 12
3 4 2 3 4 4 5 5 7 8 7 8 7 6 12 12 11 15 12 13 13 14 14 15 16 17 16 16 15 15 13 13 12 11 10 9 10 12 12 11 10 7 14 14 13 14 14 15 15
1 3 3 3 3 4 3 4 7 7 4 6 8 6 7 11 10 10 11 14 14 14 13 14 14 15 15 13 12 12 12 12 12 11 12 10 11 9 9 10 10 10 8 8 6 5 11 17 16
Wind_Direction
297 269 281 267 246 232 255 235 274 1 217 67 16 349 351 326 333 38 136 128 135 134 148 153 142 150 148 151 147 146 145 147 151 142 138 136 132 127 122 120 122 126 126 125 124 125 120 118 114
295 289 241 274 247 247 227 247 142 246 78 15 341 204 246 51 43 101 140 157 150 142 154 155 146 151 151 152 150 151 149 150 152 146 142 140 136 132 129 127 128 129 128 130 131 130 127 123 119
259 264 266 233 236 251 263 226 161 193 57 340 313 356 342 60 50 124 98 150 148 150 161 148 150 153 153 152 152 154 152 150 151 150 145 143 139 136 133 133 133 135 134 135 136 136 133 128 129
253 215 245 251 260 236 278 44 275 15 191 226 338 303 108 54 20 348 145 155 151 156 164 142 150 153 151 154 153 155 153 149 153 152 149 146 141 138 138 139 140 140 139 139 139 139 135 135 137
230 263 251 236 246 264 265 314 11 294 337 290 329 319 55 51 41 101 150 162 159 158 152 154 149 152 153 154 154 154 151 150 154 154 150 148 144 141 144 146 145 142 143 142 142 140 138 137 139
233 253 245 244 236 237 287 308 277 270 269 274 285 304 58 63 44 113 161 159 163 160 145 157 151 151 154 153 154 153 151 151 156 154 151 149 147 148 150 151 149 146 146 147 146 146 145 141 141
248 231 248 264 271 248 345 330 292 277 271 259 322 293 99 71 33 127 161 162 166 162 150 159 169 156 152 152 154 154 153 154 156 155 153 152 154 156 156 157 155 151 152 154 153 154 155 151 149
262 260 259 255 257 263 39 327 292 273 274 293 328 261 92 50 9 127 169 173 169 157 157 165 174 170 168 167 156 154 154 154 156 157 157 158 158 159 161 163 162 159 159 159 162 164 165 164 164
243 250 247 250 246 226 110 279 320 329 291 284 249 272 59 59 36 163 172 173 175 171 174 174 177 178 177 172 167 153 153 152 153 155 160 161 174 176 170 188 165 171 170 168 170 173 175 177 187
234 236 256 22 5 0 348 310 308 305 287 260 249 269 126 62 106 236 196 194 191 185 181 181 181 180 178 175 169 179 176 176 180 181 175 183 187 188 183 171 169 177 177 177 177 181 187 199 201
260 246 9 70 35 345 303 291 290 284 276 274 309 306 276 22 297 233 228 216 197 192 186 185 184 182 181 177 172 181 182 184 188 188 183 198 188 188 192 169 180 185 185 187 188 191 206 212 232
268 237 10 306 354 307 294 301 288 282 279 296 302 310 308 299 276 266 220 230 208 192 192 186 186 187 194 175 176 182 181 185 187 189 187 200 196 183 199 187 188 194 185 199 195 203 215 222 229
240 296 336 296 301 290 286 276 278 275 284 265 271 278 278 276 269 254 260 235 229 199 197 189 188 188 196 194 183 190 186 186 190 185 189 206 197 184 198 195 194 195 187 202 195 214 206 222 230
15 304 284 272 281 290 298 287 274 272 281 290 243 273 284 284 270 269 261 250 236 212 198 192 194 189 194 204 187 195 192 183 192 188 193 211 199 183 199 203 202 198 202 203 208 208 212 224 228
313 283 270 183 6 308 328 284 254 267 255 262 266 268 274 270 276 277 256 251 214 229 211 193 199 190 198 205 192 196 189 195 195 197 195 197 204 191 209 207 206 207 208 203 207 210 221 221 227
271 236 344 128 338 308 316 292 295 337 343 312 311 299 296 288 277 265 261 246 244 211 216 202 198 200 198 203 197 198 200 204 198 203 195 200 207 215 201 208 208 210 211 205 213 214 215 223 233
71 333 327 308 313 306 288 304 302 307 299 292 291 293 287 287 284 269 265 249 247 220 212 212 199 210 195 209 208 203 206 202 206 204 201 195 208 213 207 221 211 200 209 214 215 213 221 219 233
335 328 320 317 334 311 307 300 304 299 290 287 286 283 283 283 280 283 284 272 244 232 201 207 205 201 202 206 209 207 208 201 213 210 210 191 205 209 218 218 221 198 213 211 210 221 210 228 232
312 308 309 313 336 316 310 301 299 302 286 284 283 273 270 272 279 288 278 277 265 264 229 204 196 201 209 205 203 215 206 206 204 218 211 201 200 206 217 221 212 206 215 218 205 211 224 213 226
319 323 327 320 341 314 297 297 298 27 11 346 287 275 267 264 294 299 288 275 262 251 254 206 209 199 205 212 212 210 211 213 211 210 216 208 203 205 210 219 224 206 216 218 220 208 214 224 213
347 1 339 323 319 288 288 292 44 21 17 349 1 306 299 328 309 295 282 286 301 240 247 229 217 209 207 215 211 213 219 220 211 212 211 212 216 209 211 209 221 219 208 213 214 212 215 220 219
299 355 317 313 322 325 321 291 37 15 19 16 1 7 359 342 319 299 329 307 299 307 293 254 219 219 208 208 223 218 212 217 217 216 221 221 215 220 217 218 214 228 209 214 210 215 218 224 233
324 321 295 288 293 314 337 293 11 24 10 8 4 8 8 359 9 15 10 4 15 3 339 314 297 213 208 203 225 229 230 220 222 215 228 211 221 210 223 219 218 216 227 211 217 212 210 219 226
289 303 279 242 281 307 270 309 48 5 357 16 8 357 8 7 17 24 28 23 24 13 7 357 316 281 211 204 203 225 224 230 237 252 232 221 219 225 211 225 221 218 218 223 213 221 216 210 219
352 340 351 288 225 31 72 72 49 344 25 23 14 6 4 4 19 30 34 34 32 29 28 22 19 19 11 337 219 213 233 224 232 238 227 212 237 246 245 213 223 222 221 222 217 211 221 217 218
21 14 355 308 347 332 23 44 62 9 32 24 359 13 354 21 8 28 22 19 20 29 32 30 33 31 27 31 26 18 356 236 219 233 228 237 216 203 213 223 224 230 232 224 224 223 219 221 222
343 6 346 282 270 286 134 151 223 37 31 26 16 357 5 12 7 9 25 23 18 21 23 23 28 32 34 33 34 31 29 28 16 7 360 302 267 266 223 197 198 213 229 234 227 229 226 224 222
6 6 304 320 320 326 142 83 18 1 10 356 37 18 358 358 14 19 14 27 23 23 21 20 23 31 29 27 28 29 26 25 23 30 25 16 0 353 359 270 202 213 219 222 223 227 231 232 226
4 28 5 299 330 314 317 71 14 9 25 17 357 30 17 25 20 17 18 16 32 24 21 20 20 21 21 26 26 25 25 23 17 21 23 7 14 13 16 3 351 278 239 234 222 224 229 228 230
13 353 21 315 35 347 269 68 39 20 19 7 12 34 50 18 54 42 25 23 20 21 17 12 13 17 13 18 25 23 24 25 25 11 16 1 11 1 9 7 11 17 12 6 4 307 244 235 235